Skip Navigation Links
NOAA logo - Click to go to the NOAA homepage
NOAA's National Weather Service
Alaska Aviation Weather Unit
  NWS logo - Click to go to the NWS homepage
Left Navbar Graphic     00 AKDT = 08 GMT

   
NOAA is celebrating 200 years of science, service, and stewardship. Visit the NOAA 200th celebration Web site to learn more.
USA.gov is the U.S. Government's official Web portal to all Federal, state and local government Web resources and services.
Facebook
NWS on Facebook

Important Change Regarding the AAWU Web Presence

 

Over the last several months, the AAWU has been working to navigate its webpages to a nationally supported server. Security, as well as other needs, have necessitated the change.  We have been given an extension for the site changeover while we diligently work at addressing feedback received. As of July 14, 2017, aawu.arh.noaa.gov will be discontinued. The new AAWU web address is weather.gov/aawu. It is now live and will run in-parallel with the old site until it is discontinued on July 14, 2017. Please continue to send any feedback or questions regarding the new webpages to nws.ar.aawu.webauthors@noaa.gov.  Thank you for your patience during this time of transition.
AAWU Home :: Display TAF Add Bookmark
TAF PAFA 240540Z 2406/2512  01008KT P6SM FEW060 SCT100 BKN200
     FM250000 36005KT P6SM -RA SCT035 OVC050
     FM250300 36003KT P6SM -RA BKN025 OVC035=

4308
FTAK31 PAFA 240540
TAFASC
TAF

METAR PAFA 240253Z 01010KT 10SM FEW060 FEW100 BKN200 13/06 A2953= METAR PAFA 240353Z 36008KT 10SM FEW060 FEW100 BKN200 11/05 A2953= METAR PAFA 240453Z 36009KT 10SM FEW060 FEW100 BKN200 09/04 A2952= METAR PAFA 240553Z 36011KT 10SM SCT200 08/04 A2952= METAR PAFA 240653Z 01011KT 10SM SCT130 SCT200 08/03 A2952= METAR PAFA 240753Z 01010KT 10SM SCT110 BKN200 08/03 A2951=
 Alaska TAF Map

NOAA's National Weather Service
Alaska Aviation Weather Unit
6930 Sand Lake Road
Anchorage, AK 99502-1845
Disclaimer
Credits
Glossary
Privacy Policy
About Us
Career Opportunities
Contact AAWU Internet Services Site last modified: April, 17th 2012